{"data":{"norad_id":53019,"intl_designator":"2022-076AK","name":"STARLINK-4282","alt_names":[],"object_type":"PAYLOAD","status":"ACTIVE","operator":null,"country":"US","launch_date":"2022-07-07","launch_site_code":"AFETR","launch_vehicle":null,"mission":null,"orbit_class":"UNKNOWN","rcs_meters":null,"size_class":null,"mass_kg":null,"dimensions":null,"purposes":["comms"],"wikipedia_slug":null,"has_3d_model":false,"image_url":null,"decayed_at":null,"tle_current":{"epoch":"2026-05-25T01:12:31.921344Z","epoch_age_seconds":80815,"freshness":"FRESH","line1":"1 53019U 22076AK  26145.05036946  .00002815  00000+0  19476-3 0  9991","line2":"2 53019  53.2171 101.3226 0001297  90.0141 270.1000 15.08856987214518","mean_motion":15.08856987,"eccentricity":0.0001297,"inclination_deg":53.2171,"raan_deg":101.3226,"arg_perigee_deg":90.0141,"mean_anomaly_deg":270.1,"bstar":0.00019476,"rev_number":21451,"period_min":95.436480223556,"perigee_km":538.79422463582,"apogee_km":540.58870934015,"semimajor_km":6917.828466988,"source":"CELESTRAK","updated_at":"2026-05-25T13:38:17.280737Z"}}}